Location: Unspecified
(48.5670°N, 0.0000°E)
Time: 17:00:52
(UTC+00:00)

Altair - Pass Details

Date: 03 September 2019
Orbit: 1501 x 1683 km, 47.2° (Epoch: 17 October)

Event Time Altitude Azimuth Distance (km) Brightness Sun altitude
Exits shadow 00:28:38 56° 130° (SE) 1,890 7.6 -33.3°
Drops below altitude 10° 00:37:04 10° 77° (ENE) 3,807 9.8 -33.1°
Sets 00:40:10 0° 73° (ENE) 4,768 10.4 -33.0°
